Location: L�Ave Maria
(50.7161°N, 1.5911°E)
Time: 23:42:57
(UTC+00:00)

Cosmos 2278 Rocket - Pass Details

Date: 10 July 2020
Orbit: 841 x 845 km, 71.0° (Epoch: 14 August)

Event Time Altitude Azimuth Distance (km) Brightness Sun altitude
Rises 21:30:28 0° 327° (NNW) 3,416 7.7 -10.2°
Reaches altitude 10° 21:32:58 10° 324° (NW) 2,477 6.3 -10.4°
Maximum altitude 21:38:29 54° 248° (WSW) 1,017 2.7 -10.9°
Enters shadow 21:43:36 12° 173° (S) 2,325 3.9 -11.3°
